Date String (YYYY-MM-DD hh:mm:ss) UTC,Instrument flags,absolute air pressure of the measurement (hPa),sample flow rate (lpm),inlet stack bypass flow (lpm),air temperature of the measurement (°C),ambient temperature measured by the external sensor (°C),aerosol sample conditioner tube jacket temperature (°C),OPC LED temperature (°C),internal box temperature (°C),relative humidity of the measurement (%),span deviation,mass concentration of particles derived from Lorenz-Mie calculation of OPC scattering (μg/m³),mass concentration of particles derived from Lorenz-Mie calculation of OPC scattering (μg/m³),mass concentration of particles derived from Lorenz-Mie calculation of OPC scattering (μg/m³)
DateTimeUTC,F1_M11,P_M11,Q1_M11,Q2_M11,T1_M11,T2_M11,T3_M11,T4_M11,T5_M11,U1_M11,ZSPAN_M11,X0_M11,X2_M11,X1_M11
2023-08-01 03:00:00,SystemResetWarning,0836.8,4.99,000.00,032.2,026.4,000.0,039.9,031.3,31.6,0000.0,0007.51,0004.37,0003.79
2023-08-01 03:01:00,SystemResetWarning,0836.9,5.00,000.00,032.1,026.8,000.0,039.9,031.4,32.8,0000.0,0007.46,0004.36,0003.77
2023-08-01 03:02:00,SystemResetWarning,0836.9,5.00,000.00,032.0,027.1,000.0,039.9,031.4,32.2,0000.0,0007.44,0004.35,0003.76
2023-08-01 03:03:00,SystemResetWarning,0836.9,5.01,000.00,032.0,027.4,000.0,039.9,031.5,32.2,0000.0,0007.45,0004.35,0003.77
2023-08-01 03:04:00,SystemResetWarning,0836.9,5.00,000.00,031.9,027.6,000.0,039.9,031.5,31.8,0000.0,0007.31,0004.31,0003.76
2023-08-01 03:05:00,SystemResetWarning,0836.9,5.00,000.00,031.9,027.8,000.0,039.9,031.6,32.6,0000.0,0007.27,0004.31,0003.77
2023-08-01 03:06:00,SystemResetWarning,0837.0,4.99,000.00,031.9,028.0,000.0,039.9,031.6,33.2,0000.0,0007.33,0004.33,0003.78
2023-08-01 03:07:00,SystemResetWarning,0837.0,5.00,000.00,031.8,028.1,000.0,039.9,031.7,33.5,0000.0,0007.47,0004.36,0003.79
2023-08-01 03:08:00,SystemResetWarning,0837.0,5.00,000.00,031.8,028.1,000.0,039.8,031.7,34.1,0000.0,0007.56,0004.41,0003.81
2023-08-01 03:09:00,SystemResetWarning,0836.9,4.98,000.00,031.8,026.8,000.0,039.7,031.6,34.3,0000.0,0007.62,0004.42,0003.80
2023-08-01 03:10:00,SystemResetWarning,0836.9,5.02,000.00,031.7,025.7,000.0,039.6,031.4,34.6,0000.0,0007.63,0004.41,0003.77
2023-08-01 03:11:00,SystemResetWarning,0837.0,5.00,000.00,031.5,025.6,000.0,039.5,031.1,34.5,0000.0,0007.52,0004.35,0003.73
2023-08-01 03:12:00,SystemResetWarning,0836.8,4.98,000.00,031.4,025.9,000.0,039.5,031.1,35.7,0000.0,0007.46,0004.30,0003.68
2023-08-01 03:13:00,SystemResetWarning,0836.7,5.02,000.00,031.5,026.3,000.0,039.5,031.2,36.2,0000.0,0007.33,0004.23,0003.62
2023-08-01 03:14:00,SystemResetWarning,0836.8,4.97,000.00,031.7,026.6,000.0,039.5,031.4,36.3,0000.0,0007.14,0004.14,0003.55
2023-08-01 03:15:00,SystemResetWarning,0836.8,5.01,000.00,032.0,027.0,000.0,039.5,031.6,35.5,0000.0,0007.04,0004.09,0003.50
2023-08-01 03:16:00,SystemResetWarning,0836.8,5.01,000.00,032.3,027.2,000.0,039.5,031.8,34.9,0000.0,0007.00,0004.03,0003.43
2023-08-01 03:17:00,SystemResetWarning,0836.8,4.99,000.00,032.5,027.5,000.0,039.6,031.8,34.7,0000.0,0006.87,0003.97,0003.37
2023-08-01 03:18:00,SystemResetWarning,0836.7,5.02,000.00,032.7,027.7,000.0,039.7,031.8,34.2,0000.0,0006.61,0003.91,0003.32
2023-08-01 03:19:00,SystemResetWarning,0836.6,4.99,000.00,032.7,027.9,000.0,039.8,031.9,33.7,0000.0,0006.35,0003.83,0003.28
2023-08-01 03:20:00,SystemResetWarning,0836.6,4.99,000.00,032.7,028.1,000.0,039.9,031.9,33.8,0000.0,0006.32,0003.83,0003.28
2023-08-01 03:21:00,SystemResetWarning,0836.5,5.00,000.00,032.7,028.2,000.0,040.0,031.9,34.0,0000.0,0006.26,0003.82,0003.28
2023-08-01 03:22:00,SystemResetWarning,0836.5,4.99,000.00,032.7,028.1,000.0,040.0,031.9,34.0,0000.0,0006.48,0003.86,0003.29
2023-08-01 03:23:00,SystemResetWarning,0836.4,4.99,000.00,032.8,026.6,000.0,040.0,031.8,33.9,0000.0,0006.44,0003.84,0003.29
2023-08-01 03:24:00,SystemResetWarning,0836.4,5.00,000.00,032.7,025.6,000.0,039.9,031.6,34.1,0000.0,0006.62,0003.88,0003.30
2023-08-01 03:25:00,SystemResetWarning,0836.3,5.01,000.00,032.5,025.6,000.0,039.9,031.3,34.4,0000.0,0006.77,0003.92,0003.32
2023-08-01 03:26:00,SystemResetWarning,0836.2,4.99,000.00,032.3,025.9,000.0,040.0,031.2,35.0,0000.0,0006.75,0003.93,0003.33
2023-08-01 03:27:00,SystemResetWarning,0836.1,5.03,000.00,032.3,026.3,000.0,040.0,031.4,35.2,0000.0,0006.65,0003.93,0003.36
2023-08-01 03:28:00,SystemResetWarning,0836.1,5.00,000.00,032.4,026.7,000.0,040.0,031.6,34.8,0000.0,0006.67,0003.91,0003.37
2023-08-01 03:29:00,SystemResetWarning,0836.0,4.98,000.00,032.6,027.0,000.0,040.1,031.7,34.5,0000.0,0006.82,0003.93,0003.39
2023-08-01 03:30:00,SystemResetWarning,0835.9,5.01,000.00,032.6,027.3,000.0,040.1,031.7,34.3,0000.0,0006.88,0003.96,0003.41
2023-08-01 03:31:00,SystemResetWarning,0836.0,5.00,000.00,032.7,027.5,000.0,040.1,031.8,34.2,0000.0,0007.27,0004.02,0003.44
2023-08-01 03:32:00,SystemResetWarning,0836.0,4.99,000.00,032.6,027.8,000.0,040.1,031.8,34.2,0000.0,0007.43,0004.06,0003.47
2023-08-01 03:33:00,SystemResetWarning,0836.1,4.99,000.00,032.6,027.9,000.0,040.2,031.8,34.3,0000.0,0007.55,0004.09,0003.50
2023-08-01 03:34:00,SystemResetWarning,0836.1,5.00,000.00,032.6,028.1,000.0,040.2,031.9,34.5,0000.0,0007.90,0004.12,0003.54
2023-08-01 03:35:00,SystemResetWarning,0836.1,4.99,000.00,032.6,028.2,000.0,040.2,031.9,34.6,0000.0,0008.24,0004.18,0003.60
2023-08-01 03:36:00,SystemResetWarning,0836.1,5.00,000.00,032.5,028.3,000.0,040.3,031.9,34.5,0000.0,0008.70,0004.21,0003.63
2023-08-01 03:37:00,SystemResetWarning,0836.2,5.01,000.00,032.5,028.4,000.0,040.3,032.0,34.6,0000.0,0008.95,0004.27,0003.68
2023-08-01 03:38:00,SystemResetWarning,0836.3,4.99,000.00,032.5,027.5,000.0,040.2,032.0,34.3,0000.0,0009.07,0004.32,0003.71
2023-08-01 03:39:00,SystemResetWarning,0836.3,5.00,000.00,032.4,026.1,000.0,040.1,031.8,34.1,0000.0,0009.12,0004.39,0003.75
2023-08-01 03:40:00,SystemResetWarning,0836.6,5.00,000.00,032.3,025.7,000.0,040.0,031.5,34.4,0000.0,0009.20,0004.44,0003.79
2023-08-01 03:41:00,SystemResetWarning,0836.7,4.99,000.00,032.1,025.8,000.0,040.0,031.3,34.9,0000.0,0009.30,0004.48,0003.82
2023-08-01 03:42:00,SystemResetWarning,0836.9,5.02,000.00,032.0,026.2,000.0,040.0,031.4,35.3,0000.0,0009.11,0004.45,0003.83
2023-08-01 03:43:00,SystemResetWarning,0837.2,5.01,000.00,032.2,026.6,000.0,040.0,031.6,35.2,0000.0,0009.05,0004.45,0003.84
2023-08-01 03:44:00,SystemResetWarning,0837.3,5.01,000.00,032.4,026.9,000.0,040.0,031.8,34.8,0000.0,0008.96,0004.47,0003.85
2023-08-01 03:45:00,SystemResetWarning,0837.5,4.97,000.00,032.6,027.2,000.0,040.0,031.9,34.5,0000.0,0008.72,0004.49,0003.84
2023-08-01 03:46:00,SystemResetWarning,0837.5,5.01,000.00,032.7,027.5,000.0,040.0,031.9,34.4,0000.0,0008.51,0004.50,0003.84
2023-08-01 03:47:00,SystemResetWarning,0837.5,5.00,000.00,032.7,027.7,000.0,040.1,031.9,34.0,0000.0,0008.64,0004.53,0003.85
2023-08-01 03:48:00,SystemResetWarning,0837.5,5.00,000.00,032.8,027.9,000.0,040.1,031.9,34.0,0000.0,0008.68,0004.61,0003.86
2023-08-01 03:49:00,SystemResetWarning,0837.4,5.01,000.00,032.7,028.0,000.0,040.2,031.9,33.9,0000.0,0008.74,0004.64,0003.86
2023-08-01 03:50:00,SystemResetWarning,0837.4,5.00,000.00,032.7,028.1,000.0,040.3,032.0,33.8,0000.0,0008.81,0004.67,0003.86
2023-08-01 03:51:00,SystemResetWarning,0837.4,5.00,000.00,032.7,028.2,000.0,040.3,032.0,33.8,0000.0,0008.74,0004.66,0003.86
2023-08-01 03:52:00,SystemResetWarning,0837.4,5.00,000.00,032.6,028.3,000.0,040.3,032.0,33.8,0000.0,0008.75,0004.68,0003.86
2023-08-01 03:53:00,SystemResetWarning,0837.4,4.99,000.00,032.6,028.2,000.0,040.3,032.0,34.0,0000.0,0009.14,0004.72,0003.87
2023-08-01 03:54:00,SystemResetWarning,0837.3,4.99,000.00,032.6,026.7,000.0,040.2,031.9,33.6,0000.0,0009.43,0004.73,0003.88
2023-08-01 03:55:00,SystemResetWarning,0837.3,5.00,000.00,032.5,025.8,000.0,040.1,031.7,33.6,0000.0,0009.47,0004.74,0003.88
2023-08-01 03:56:00,SystemResetWarning,0837.3,5.01,000.00,032.3,025.8,000.0,040.1,031.4,33.8,0000.0,0009.44,0004.73,0003.89
2023-08-01 03:57:00,SystemResetWarning,0837.3,5.01,000.00,032.1,026.1,000.0,040.1,031.4,34.3,0000.0,0009.43,0004.74,0003.90
2023-08-01 03:58:00,SystemResetWarning,0837.4,4.98,000.00,032.0,026.5,000.0,040.1,031.4,34.8,0000.0,0009.56,0004.75,0003.89
2023-08-01 03:59:00,SystemResetWarning,0837.4,5.02,000.00,032.0,026.8,000.0,040.1,031.5,35.2,0000.0,0009.88,0004.73,0003.89
